Home   Weather   Leesburg   Past weeks

Flag for USA Past Weather in Leesburg, Virginia, USA — Yesterday and Last 2 Weeks

Now
45 °F

Low clouds.


Feels Like: N/A
Forecast: 37 / 50 °F
Wind: N/A

Location: Leesburg / Godfrey

Current Time: Jan 20, 2017 at 1:35:59 pm

Latest Report: Jan 20, 2017 at 12:54 pm


Visibility: 7 mi

Pressure: 29.88 "Hg

Humidity: 100%

Dew Point: 45 °F

Location of LeesburgLocation

Past Weather in Leesburg — Graph

°F

Leesburg Temperature Yesterday

Maximum temperature yesterday: 54 °F (at 3:14 pm)
Minimum temperature yesterday: 34 °F (at 11:14 pm)
Average temperature yesterday: 45 °F

High & Low Weather Summary for the Past Weeks

 TemperatureHumidityPressure
High72 °F (Jan 12, 2:15 pm)100% (Jan 5, 11:56 pm)30.77 "Hg (Jan 5, 11:56 pm)
Low12 °F (Jan 9, 1:56 am)36% (Jan 8, 2:16 pm)29.88 "Hg (Jan 18, 12:14 am)
Average38 °F73%30.29 "Hg
* Reported Jan 5 12:16 pm — Jan 20 12:14 pm, Leesburg, Weather by CustomWeather, © 2017

Note: Actual official high and low records may vary slightly from our data, if they occured in-between our weather recording intervals... More about our weather records

Advertising

Leesburg Weather History for the Previous 24 Hours

Scroll right to see more
 ConditionsComfort  
Time TempWeatherWind HumidityBarometerVisibility
12:14 pm
Fri, Jan 20
45 °FLow clouds.N/A100%29.90 "Hg10 mi
11:54 am45 °FDrizzle. Mostly cloudy.N/A100%29.91 "Hg7 mi
11:14 am45 °FLight rain. More clouds than sun.N/A93%29.90 "Hg7 mi
10:54 am45 °FLight rain. Mostly cloudy.N/A93%29.93 "Hg10 mi
10:14 am41 °FMostly cloudy.No wind100%29.95 "Hg7 mi
9:34 am41 °FOvercast.No wind100%29.96 "Hg7 mi
9:14 am41 °FMostly cloudy.No wind100%29.96 "Hg10 mi
8:54 am39 °FDrizzle. More clouds than sun.No wind100%29.96 "Hg7 mi
7:54 am39 °FOvercast.N/A100%29.94 "Hg10 mi
6:54 am37 °FOvercast.N/A100%29.94 "Hg10 mi
6:14 am37 °FOvercast.No wind100%29.97 "Hg10 mi
5:54 am37 °FOvercast.N/A100%29.98 "Hg10 mi
5:14 am36 °FPassing clouds.N/A100%29.97 "Hg7 mi
4:56 am36 °FClear.No wind100%29.98 "Hg7 mi
4:14 am36 °FClear.No wind100%29.98 "Hg10 mi
3:34 am36 °FClear.N/A100%29.98 "Hg7 mi
2:54 am36 °FClear.N/A100%30.00 "Hg10 mi
2:14 am36 °FClear.No wind100%30.01 "Hg10 mi
1:54 am36 °FClear.N/A100%30.00 "Hg10 mi
1:14 am34 °FClear.No wind100%30.01 "Hg10 mi
12:54 am34 °FClear.No wind100%30.00 "Hg10 mi
12:14 am34 °FClear.5 mph100%30.01 "Hg10 mi
11:54 pm
Thu, Jan 19
34 °FClear.No wind100%30.02 "Hg10 mi
11:14 pm34 °FClear.No wind100%30.03 "Hg10 mi
10:54 pm36 °FClear.No wind100%30.02 "Hg10 mi
10:14 pm37 °FClear.No wind93%30.02 "Hg10 mi
9:56 pm37 °FClear.N/A100%30.02 "Hg10 mi
9:14 pm36 °FClear.No wind100%30.02 "Hg10 mi
8:54 pm36 °FClear.N/A100%30.03 "Hg10 mi
8:14 pm39 °FClear.N/A93%30.03 "Hg10 mi
7:54 pm37 °FClear.N/A100%30.03 "Hg10 mi
7:14 pm39 °FClear.N/A93%30.03 "Hg10 mi
6:54 pm41 °FClear.No wind87%30.03 "Hg10 mi
6:16 pm45 °FClear.No wind81%30.03 "Hg10 mi
5:54 pm46 °FClear.No wind76%30.03 "Hg10 mi
5:14 pm48 °FSunny.No wind71%30.01 "Hg10 mi
3:54 pm52 °FSunny.No wind62%30.03 "Hg10 mi
3:14 pm54 °FSunny.6 mph58%30.02 "Hg10 mi
2:54 pm52 °FSunny.No wind62%30.02 "Hg10 mi
2:14 pm52 °FSunny.3 mph67%30.03 "Hg10 mi
1:56 pm52 °FSunny.5 mph62%30.02 "Hg10 mi
1:14 pm52 °FSunny.3 mph62%30.04 "Hg10 mi
Weather by CustomWeather, © 2017

See weather overviewHow to use our weather pages